| time (UTC) | temp F | wind direction | speed knots | gust knots | rain 1hr in | rain 24hr in | rain mn in | humidity % | barometer mb |
| 20260506232828 | 66 | 360 | 0.9 | 0.0 | 0.00 | 0.00 | 0.00 | 62 | 1015.9 |
| 20260506231828 | 66 | 360 | 0.9 | 0.0 | 0.00 | 0.00 | 0.00 | 62 | 1016.0 |
| 20260506230836 | 66 | 315 | 0.9 | 0.0 | 0.00 | 0.00 | 0.00 | 64 | 1016.0 |
| 20260506225829 | 66 | 294 | 0.9 | 0.0 | 0.00 | 0.00 | 0.00 | 63 | 1016.1 |
| 20260506224830 | 66 | 177 | 0.0 | 0.0 | 0.00 | 0.00 | 0.00 | 63 | 1016.0 |
| 20260506223849 | 66 | 177 | 0.0 | 0.0 | 0.00 | 0.00 | 0.00 | 63 | 1016.1 |
| 20260506222833 | 66 | 177 | 0.0 | 0.0 | 0.00 | 0.00 | 0.00 | 62 | 1016.1 |
| 20260506221832 | 66 | 177 | 0.0 | 0.0 | 0.00 | 0.00 | 0.00 | 61 | 1016.3 |
| 20260506220852 | 66 | 177 | 0.0 | 0.0 | 0.00 | 0.00 | 0.00 | 59 | 1016.2 |
| 20260506215845 | 67 | 177 | 0.0 | 0.0 | 0.00 | 0.00 | 0.00 | 61 | 1016.2 |
| 20260506214835 | 67 | 177 | 0.0 | 0.0 | 0.00 | 0.00 | 0.00 | 61 | 1016.3 |
| 20260506213836 | 67 | 177 | 0.0 | 0.0 | 0.00 | 0.00 | 0.00 | 61 | 1016.2 |
| 20260506212830 | 67 | 239 | 0.0 | 0.0 | 0.00 | 0.00 | 0.00 | 60 | 1016.5 |
| 20260506211831 | 67 | 241 | 0.0 | 0.0 | 0.00 | 0.00 | 0.00 | 60 | 1016.5 |
| 20260506210853 | 67 | 242 | 0.0 | 0.0 | 0.00 | 0.00 | 0.00 | 60 | 1016.6 |
| 20260506205853 | 67 | 242 | 0.0 | 0.0 | 0.00 | 0.00 | 0.00 | 59 | 1016.7 |
| 20260506204842 | 67 | 242 | 0.0 | 0.0 | 0.00 | 0.00 | 0.00 | 59 | 1016.7 |
| 20260506203843 | 67 | 244 | 1.7 | 0.0 | 0.00 | 0.00 | 0.00 | 58 | 1016.8 |
| 20260506202831 | 68 | 243 | 0.9 | 0.0 | 0.00 | 0.00 | 0.00 | 58 | 1016.7 |
| 20260506201833 | 68 | 241 | 0.9 | 0.0 | 0.00 | 0.00 | 0.00 | 56 | 1016.7 |
| 20260506200850 | 68 | 253 | 0.9 | 0.0 | 0.00 | 0.00 | 0.00 | 54 | 1016.6 |
| 20260506195846 | 69 | 245 | 0.9 | 0.0 | 0.00 | 0.00 | 0.00 | 52 | 1016.5 |
| 20260506194834 | 69 | 249 | 0.9 | 0.0 | 0.00 | 0.00 | 0.00 | 49 | 1016.5 |
| 20260506193834 | 70 | 244 | 0.9 | 0.0 | 0.00 | 0.00 | 0.00 | 46 | 1016.3 |
| 20260506192848 | 70 | 198 | 0.9 | 0.0 | 0.00 | 0.00 | 0.00 | 45 | 1016.2 |
| 20260506191845 | 70 | 198 | 0.0 | 0.0 | 0.00 | 0.00 | 0.00 | 44 | 1015.9 |
| 20260506190832 | 70 | 198 | 0.0 | 0.0 | 0.00 | 0.00 | 0.00 | 43 | 1015.9 |
| 20260506185844 | 71 | 198 | 0.0 | 0.0 | 0.00 | 0.00 | 0.00 | 43 | 1015.8 |
| 20260506184843 | 71 | 198 | 0.9 | 0.0 | 0.00 | 0.00 | 0.00 | 43 | 1015.8 |
| 20260506183832 | 71 | 190 | 0.9 | 0.0 | 0.00 | 0.00 | 0.00 | 42 | 1015.6 |
| 20260506182835 | 71 | 180 | 0.9 | 0.0 | 0.00 | 0.00 | 0.00 | 42 | 1015.6 |
| 20260506181835 | 71 | 184 | 0.9 | 0.0 | 0.00 | 0.00 | 0.00 | 42 | 1015.3 |
| 20260506180856 | 71 | 187 | 0.9 | 0.0 | 0.00 | 0.00 | 0.00 | 42 | 1015.3 |
| 20260506175847 | 71 | 150 | 0.0 | 0.0 | 0.00 | 0.00 | 0.00 | 42 | 1015.2 |
| 20260506174831 | 72 | 163 | 0.9 | 0.0 | 0.00 | 0.00 | 0.00 | 42 | 1015.2 |
| 20260506173829 | 72 | 204 | 1.7 | 0.0 | 0.00 | 0.00 | 0.00 | 43 | 1015.1 |
| 20260506172848 | 72 | 147 | 1.7 | 0.0 | 0.00 | 0.00 | 0.00 | 43 | 1015.1 |
| 20260506171840 | 72 | 198 | 2.6 | 0.0 | 0.00 | 0.00 | 0.00 | 43 | 1015.1 |
| 20260506170843 | 72 | 174 | 1.7 | 0.0 | 0.00 | 0.00 | 0.00 | 43 | 1015.0 |
| 20260506165837 | 72 | 202 | 2.6 | 0.0 | 0.00 | 0.00 | 0.00 | 43 | 1014.8 |
| 20260506164825 | 73 | 162 | 2.6 | 0.0 | 0.00 | 0.00 | 0.00 | 43 | 1014.9 |
| 20260506163844 | 73 | 167 | 3.5 | 0.0 | 0.00 | 0.00 | 0.00 | 43 | 1014.9 |
| 20260506162842 | 73 | 147 | 2.6 | 0.0 | 0.00 | 0.00 | 0.00 | 43 | 1014.8 |
| 20260506161836 | 74 | 197 | 2.6 | 0.0 | 0.00 | 0.00 | 0.00 | 42 | 1014.9 |
| 20260506160836 | 74 | 202 | 2.6 | 0.0 | 0.00 | 0.00 | 0.00 | 41 | 1014.9 |
| 20260506155833 | 74 | 231 | 2.6 | 0.0 | 0.00 | 0.00 | 0.00 | 41 | 1014.9 |
| 20260506154847 | 74 | 163 | 3.5 | 0.0 | 0.00 | 0.00 | 0.00 | 41 | 1014.9 |
| 20260506153835 | 74 | 139 | 2.6 | 0.0 | 0.00 | 0.00 | 0.00 | 42 | 1014.9 |
| 20260506152835 | 74 | 244 | 2.6 | 0.0 | 0.00 | 0.00 | 0.00 | 43 | 1015.0 |
| 20260506151856 | 74 | 167 | 3.5 | 0.0 | 0.00 | 0.00 | 0.00 | 43 | 1015.2 |
| 20260506150829 | 75 | 202 | 3.5 | 0.0 | 0.00 | 0.00 | 0.00 | 43 | 1015.1 |
| 20260506145842 | 74 | 196 | 3.5 | 0.0 | 0.00 | 0.00 | 0.00 | 42 | 1015.1 |
| 20260506144842 | 74 | 204 | 4.3 | 0.0 | 0.00 | 0.00 | 0.00 | 42 | 1015.2 |
| 20260506143834 | 74 | 181 | 5.2 | 0.0 | 0.00 | 0.00 | 0.00 | 42 | 1015.1 |
| 20260506142838 | 75 | 166 | 4.3 | 0.0 | 0.00 | 0.00 | 0.00 | 42 | 1015.1 |
| 20260506141827 | 75 | 140 | 3.5 | 0.0 | 0.00 | 0.00 | 0.00 | 42 | 1015.2 |
| 20260506140829 | 75 | 160 | 4.3 | 0.0 | 0.00 | 0.00 | 0.00 | 43 | 1015.2 |
| 20260506135844 | 75 | 232 | 3.5 | 0.0 | 0.00 | 0.00 | 0.00 | 44 | 1015.2 |
| 20260506134844 | 75 | 150 | 4.3 | 0.0 | 0.00 | 0.00 | 0.00 | 44 | 1015.2 |
| 20260506133836 | 75 | 81 | 3.5 | 0.0 | 0.00 | 0.00 | 0.00 | 45 | 1015.3 |
| 20260506132836 | 75 | 55 | 4.3 | 0.0 | 0.00 | 0.00 | 0.00 | 45 | 1015.4 |
| 20260506131831 | 75 | 217 | 3.5 | 0.0 | 0.00 | 0.00 | 0.00 | 45 | 1015.4 |
| 20260506130830 | 75 | 161 | 3.5 | 0.0 | 0.00 | 0.00 | 0.00 | 45 | 1015.4 |
| 20260506125845 | 75 | 194 | 4.3 | 0.0 | 0.00 | 0.00 | 0.00 | 46 | 1015.4 |
| 20260506124842 | 76 | 205 | 3.5 | 0.0 | 0.00 | 0.00 | 0.00 | 44 | 1015.5 |
| 20260506123834 | 75 | 190 | 4.3 | 0.0 | 0.00 | 0.00 | 0.00 | 43 | 1015.4 |
| 20260506122839 | 75 | 138 | 4.3 | 0.0 | 0.00 | 0.00 | 0.00 | 43 | 1015.5 |
| 20260506121830 | 76 | 179 | 3.5 | 0.0 | 0.00 | 0.00 | 0.00 | 45 | 1015.7 |
| 20260506120829 | 76 | 159 | 3.5 | 0.0 | 0.00 | 0.00 | 0.00 | 47 | 1015.7 |
| 20260506115843 | 75 | 190 | 3.5 | 0.0 | 0.00 | 0.00 | 0.00 | 48 | 1015.9 |
| 20260506114845 | 75 | 225 | 3.5 | 0.0 | 0.00 | 0.00 | 0.00 | 48 | 1016.0 |
| 20260506113833 | 75 | 208 | 3.5 | 0.0 | 0.00 | 0.00 | 0.00 | 47 | 1016.0 |
| 20260506112835 | 75 | 215 | 3.5 | 0.0 | 0.00 | 0.00 | 0.00 | 47 | 1016.1 |
| 20260506111827 | 76 | 186 | 2.6 | 0.0 | 0.00 | 0.00 | 0.00 | 46 | 1016.0 |
| 20260506110829 | 76 | 193 | 2.6 | 0.0 | 0.00 | 0.00 | 0.00 | 46 | 1016.0 |
| 20260506105827 | 75 | 257 | 3.5 | 0.0 | 0.00 | 0.00 | 0.00 | 46 | 1016.0 |
| 20260506104845 | 76 | 143 | 2.6 | 0.0 | 0.00 | 0.00 | 0.00 | 46 | 1016.1 |
| 20260506103833 | 75 | 154 | 3.5 | 0.0 | 0.00 | 0.00 | 0.00 | 43 | 1016.1 |
| 20260506102836 | 76 | 185 | 2.6 | 0.0 | 0.00 | 0.00 | 0.00 | 45 | 1016.1 |
| 20260506101856 | 76 | 238 | 2.6 | 0.0 | 0.00 | 0.00 | 0.00 | 44 | 1016.1 |
| 20260506100827 | 76 | 69 | 2.6 | 0.0 | 0.00 | 0.00 | 0.00 | 44 | 1016.0 |
| 20260506095842 | 75 | 285 | 2.6 | 0.0 | 0.00 | 0.00 | 0.00 | 46 | 1016.0 |
| 20260506094842 | 76 | 317 | 1.7 | 0.0 | 0.00 | 0.00 | 0.00 | 47 | 1016.1 |
| 20260506093832 | 76 | 310 | 1.7 | 0.0 | 0.00 | 0.00 | 0.00 | 48 | 1016.2 |
| 20260506092840 | 75 | 203 | 2.6 | 0.0 | 0.00 | 0.00 | 0.00 | 49 | 1016.2 |
| 20260506091831 | 75 | 224 | 2.6 | 0.0 | 0.00 | 0.00 | 0.00 | 47 | 1016.3 |
| 20260506090830 | 75 | 197 | 2.6 | 0.0 | 0.00 | 0.00 | 0.00 | 49 | 1016.4 |
| 20260506085844 | 75 | 217 | 1.7 | 0.0 | 0.00 | 0.00 | 0.00 | 48 | 1016.3 |
| 20260506084839 | 74 | 180 | 1.7 | 0.0 | 0.00 | 0.00 | 0.00 | 48 | 1016.1 |
| 20260506083830 | 74 | 245 | 2.6 | 0.0 | 0.00 | 0.00 | 0.00 | 52 | 1016.1 |
| 20260506082831 | 74 | 171 | 1.7 | 0.0 | 0.00 | 0.00 | 0.00 | 50 | 1016.1 |
| 20260506081852 | 73 | 213 | 1.7 | 0.0 | 0.00 | 0.00 | 0.00 | 51 | 1016.2 |
| 20260506080844 | 73 | 198 | 1.7 | 0.0 | 0.00 | 0.00 | 0.00 | 49 | 1016.2 |
| 20260506072827 | 72 | 196 | 1.7 | 0.0 | 0.00 | 0.00 | 0.00 | 50 | 1015.9 |
| 20260506071849 | 72 | 197 | 0.9 | 0.0 | 0.00 | 0.00 | 0.00 | 50 | 1015.7 |
| 20260506070837 | 72 | 184 | 0.9 | 0.0 | 0.00 | 0.00 | 0.00 | 50 | 1015.8 |
| 20260506061833 | 70 | 120 | 0.9 | 0.0 | 0.00 | 0.00 | 0.00 | 50 | 1015.8 |
| 20260506060854 | 69 | 45 | 0.9 | 0.0 | 0.00 | 0.00 | 0.00 | 52 | 1015.8 |
| 20260506050826 | 66 | 10 | 1.7 | 0.0 | 0.00 | 0.00 | 0.00 | 59 | 1015.6 |
| 20260506044845 | 65 | 350 | 0.9 | 0.0 | 0.00 | 0.00 | 0.00 | 60 | 1015.2 |
| 20260506043835 | 64 | 71 | 0.9 | 0.0 | 0.00 | 0.00 | 0.00 | 62 | 1015.3 |
| 20260506042839 | 62 | 146 | 0.0 | 0.0 | 0.00 | 0.00 | 0.00 | 65 | 1015.3 |
| 20260506041829 | 62 | 146 | 0.0 | 0.0 | 0.00 | 0.00 | 0.00 | 66 | 1015.3 |
| 20260506040831 | 61 | 146 | 0.9 | 0.0 | 0.00 | 0.00 | 0.00 | 66 | 1015.1 |
| 20260506035843 | 61 | 146 | 0.0 | 0.0 | 0.00 | 0.00 | 0.00 | 67 | 1015.0 |
| 20260506034845 | 61 | 146 | 0.0 | 0.0 | 0.00 | 0.00 | 0.00 | 67 | 1015.0 |
| 20260506033836 | 61 | 146 | 0.9 | 0.0 | 0.00 | 0.00 | 0.00 | 67 | 1014.7 |
| 20260506032835 | 61 | 146 | 0.9 | 0.0 | 0.00 | 0.00 | 0.00 | 68 | 1014.7 |
| 20260506031828 | 61 | 146 | 0.9 | 0.0 | 0.00 | 0.00 | 0.00 | 68 | 1014.6 |
| 20260506030831 | 61 | 146 | 0.9 | 0.0 | 0.00 | 0.00 | 0.00 | 69 | 1014.6 |
| 20260506025840 | 61 | 146 | 0.0 | 0.0 | 0.00 | 0.00 | 0.00 | 70 | 1014.6 |
| 20260506024842 | 62 | 146 | 0.0 | 0.0 | 0.00 | 0.00 | 0.00 | 69 | 1014.5 |
| 20260506023835 | 62 | 146 | 0.0 | 0.0 | 0.00 | 0.00 | 0.00 | 69 | 1014.5 |
| 20260506022839 | 62 | 146 | 0.0 | 0.0 | 0.00 | 0.00 | 0.00 | 69 | 1014.6 |
| 20260506021829 | 63 | 146 | 0.0 | 0.0 | 0.00 | 0.00 | 0.00 | 68 | 1014.7 |
| 20260506020831 | 63 | 146 | 0.0 | 0.0 | 0.00 | 0.00 | 0.00 | 67 | 1014.7 |
| 20260506015846 | 63 | 146 | 0.0 | 0.0 | 0.00 | 0.00 | 0.00 | 67 | 1014.7 |
| 20260506014845 | 63 | 146 | 0.9 | 0.0 | 0.00 | 0.00 | 0.00 | 67 | 1014.8 |
| 20260506013834 | 63 | 146 | 0.0 | 0.0 | 0.00 | 0.00 | 0.00 | 67 | 1015.0 |
| 20260506012836 | 63 | 146 | 0.0 | 0.0 | 0.00 | 0.00 | 0.00 | 67 | 1014.9 |
| 20260506011855 | 63 | 146 | 0.0 | 0.0 | 0.00 | 0.00 | 0.00 | 67 | 1014.8 |
| 20260506010839 | 63 | 146 | 0.0 | 0.0 | 0.00 | 0.00 | 0.00 | 67 | 1014.9 |
| 20260506005839 | 63 | 146 | 0.0 | 0.0 | 0.00 | 0.00 | 0.00 | 66 | 1014.9 |
| 20260506004842 | 64 | 146 | 0.0 | 0.0 | 0.00 | 0.00 | 0.00 | 66 | 1015.0 |
| 20260506003857 | 64 | 146 | 0.0 | 0.0 | 0.00 | 0.00 | 0.00 | 66 | 1015.0 |
| 20260506002841 | 64 | 170 | 0.0 | 0.0 | 0.00 | 0.00 | 0.00 | 66 | 1015.0 |
| 20260506001840 | 64 | 170 | 0.9 | 0.0 | 0.00 | 0.00 | 0.00 | 66 | 1015.0 |
| 20260506000856 | 64 | 180 | 0.9 | 0.0 | 0.00 | 0.00 | 0.00 | 66 | 1015.0 |
| 20260505235836 | 64 | 161 | 0.0 | 0.0 | 0.00 | 0.00 | 0.00 | 65 | 1015.0 |
| 20260505234832 | 64 | 134 | 0.0 | 0.0 | 0.00 | 0.00 | 0.00 | 65 | 1015.2 |
| 20260505233839 | 64 | 134 | 0.0 | 0.0 | 0.00 | 0.00 | 0.00 | 64 | 1015.2 |